Angel Fire, NM

6:26 PM MDT on April 25, 2018 (GMT -0600)
Angel Fire

Weather History for KAXX - February, 2014

Change the Weather History Date:

Saturday, February 15, 2014

  Actual Average (KSKX) Record (KSKX)
Temperature  
Mean Temperature 40 °F -  
Max Temperature 56 °F 42 °F 64 °F (2014)
Min Temperature 24 °F 16 °F 0 °F (2004)
Degree Days  
Heating Degree Days 24    
Moisture  
Dew Point 19 °F    
Average Humidity 41    
Maximum Humidity 79    
Minimum Humidity 17    
Precipitation  
Precipitation 0.00 in - - ()
Sea Level Pressure  
Sea Level Pressure 30.18 in    
Wind  
Wind Speed 19 mph (West)    
Max Wind Speed 38 mph    
Max Gust Speed 50 mph    
Visibility 10 miles    
Events      
Averages and records for this station are not official NWS values.
T = Trace of Precipitation, MM = Missing Value Source: NWS Daily Summary

Daily Weather History Graph

Daily Weather History Graph

Search for Another Location

Airport or City:

Astronomy

Feb. 15, 2014 Rise Set
Actual Time 6:48 AM MST 5:42 PM MST
Civil Twilight 6:22 AM MST 6:08 PM MST
Nautical Twilight 5:52 AM MST 6:38 PM MST
Astronomical Twilight 5:22 AM MST 7:08 PM MST
Moon 6:41 PM MST (2/15) 6:51 AM MST (2/15)
Length of Visible Light 11h 45m
Length of Day
10h 53m
Waxing Gibbous, 99% of the Moon is Illuminated
Feb 15
Waxing Gibbous
Feb 22
Last Quarter
Mar 1
New
Mar 8
First Quarter
Mar 16
Full

Hourly Weather History & Observations

Time (MST) Temp. Windchill Dew Point Humidity Pressure Visibility Wind Dir Wind Speed Gust Speed Precip Events Conditions
12:15 AM 41.0 °F 32.2 °F 24.8 °F 53% 30.16 in 10.0 mi West 18.4 mph 31.1 mph N/A   Clear
12:35 AM 41.0 °F 31.9 °F 24.6 °F 52% 30.16 in 10.0 mi West 19.6 mph 33.4 mph N/A   Clear
12:55 AM 40.6 °F 31.7 °F 24.3 °F 52% 30.17 in 10.0 mi West 18.4 mph 26.5 mph N/A   Clear
1:15 AM 40.5 °F 31.2 °F 23.9 °F 52% 30.18 in 10.0 mi West 19.6 mph 24.2 mph N/A   Clear
1:35 AM 41.0 °F 31.4 °F 23.5 °F 50% 30.18 in 10.0 mi West 21.9 mph 27.6 mph N/A   Clear
1:55 AM 40.5 °F 30.9 °F 23.5 °F 51% 30.18 in 10.0 mi West 20.7 mph 29.9 mph N/A   Clear
2:15 AM 40.1 °F 29.9 °F 23.5 °F 52% 30.16 in 10.0 mi West 23.0 mph 27.6 mph N/A   Clear
2:35 AM 40.3 °F 31.3 °F 23.4 °F 51% 30.18 in 10.0 mi West 18.4 mph 25.3 mph N/A   Clear
2:55 AM 40.1 °F 31.0 °F 23.2 °F 51% 30.18 in 10.0 mi West 18.4 mph 26.5 mph N/A   Clear
3:15 AM 39.9 °F 31.4 °F 23.0 °F 51% 30.18 in 10.0 mi West 16.1 mph 24.2 mph N/A   Clear
3:35 AM 39.9 °F 32.1 °F 23.0 °F 51% 30.18 in 10.0 mi West 13.8 mph 23.0 mph N/A   Clear
3:55 AM 39.6 °F 31.0 °F 23.0 °F 52% 30.18 in 10.0 mi West 16.1 mph 23.0 mph N/A   Clear
4:15 AM 39.9 °F 31.8 °F 23.0 °F 51% 30.18 in 10.0 mi West 15.0 mph 21.9 mph N/A   Clear
4:35 AM 39.4 °F 31.1 °F 23.0 °F 52% 30.18 in 10.0 mi West 15.0 mph 19.6 mph N/A   Clear
4:55 AM 39.9 °F 31.1 °F 22.6 °F 50% 30.18 in 10.0 mi West 17.3 mph 23.0 mph N/A   Clear
5:15 AM 39.9 °F 31.8 °F 22.6 °F 50% 30.18 in 10.0 mi West 15.0 mph 25.3 mph N/A   Clear
5:35 AM 39.9 °F 31.4 °F 22.6 °F 50% 30.17 in 10.0 mi West 16.1 mph 25.3 mph N/A   Clear
5:55 AM 40.5 °F 31.2 °F 22.5 °F 49% 30.17 in 10.0 mi West 19.6 mph 26.5 mph N/A   Clear
6:15 AM 41.2 °F 31.1 °F 22.5 °F 47% 30.17 in 10.0 mi West 24.2 mph 34.5 mph N/A   Clear
6:35 AM 41.0 °F 31.1 °F 22.1 °F 47% 30.17 in 10.0 mi West 23.0 mph 35.7 mph N/A   Clear
6:55 AM 41.2 °F 30.3 °F 22.1 °F 47% 30.17 in 10.0 mi West 28.8 mph 39.1 mph N/A   Clear
7:15 AM 41.2 °F 30.5 °F 21.7 °F 46% 30.16 in 10.0 mi West 27.6 mph 36.8 mph N/A   Clear
7:35 AM 43.0 °F 32.2 °F 20.8 °F 41% 30.15 in 10.0 mi West 32.2 mph 43.7 mph N/A   Clear
7:55 AM 43.7 °F 33.3 °F 20.3 °F 39% 30.15 in 10.0 mi West 31.1 mph 41.4 mph N/A   Clear
8:15 AM 44.6 °F 34.1 °F 19.6 °F 37% 30.15 in 10.0 mi West 34.5 mph 46.0 mph N/A   Clear
8:35 AM 45.1 °F 34.7 °F 19.2 °F 36% 30.15 in 10.0 mi West 35.7 mph 43.7 mph N/A   Clear
8:55 AM 47.3 °F - 18.5 °F 32% 30.14 in 10.0 mi West 31.1 mph 49.5 mph N/A   Clear
9:15 AM 48.9 °F - 17.8 °F 29% 30.15 in 10.0 mi West 32.2 mph 46.0 mph N/A   Clear
9:35 AM 49.8 °F - 18.3 °F 29% 30.15 in 10.0 mi West 35.7 mph 49.5 mph N/A   Clear
9:55 AM 48.0 °F - 19.9 °F 33% 30.16 in 10.0 mi West 36.8 mph 48.3 mph N/A   Clear
10:15 AM 47.5 °F - 20.1 °F 34% 30.17 in 10.0 mi West 35.7 mph 47.2 mph N/A   Clear
10:35 AM 48.4 °F - 18.0 °F 30% 30.16 in 10.0 mi West 38.0 mph 48.3 mph N/A   Clear
10:55 AM 51.3 °F - 14.9 °F 24% 30.16 in 10.0 mi West 29.9 mph 44.9 mph N/A   Clear
11:15 AM 52.2 °F - 15.1 °F 23% 30.17 in 10.0 mi West 31.1 mph 46.0 mph N/A   Clear
11:35 AM 52.0 °F - 15.4 °F 24% 30.16 in 10.0 mi West 35.7 mph 43.7 mph N/A   Clear
11:55 AM 53.1 °F - 15.8 °F 23% 30.16 in 10.0 mi West 28.8 mph 40.3 mph N/A   Clear
12:15 PM 53.1 °F - 14.9 °F 22% 30.14 in 10.0 mi West 31.1 mph 47.2 mph N/A   Clear
12:35 PM 54.0 °F - 15.4 °F 22% 30.14 in 10.0 mi West 28.8 mph 43.7 mph N/A   Clear
12:55 PM 54.1 °F - 16.7 °F 23% 30.13 in 10.0 mi West 27.6 mph 44.9 mph N/A   Clear
1:15 PM 53.4 °F - 18.3 °F 25% 30.14 in 10.0 mi West 29.9 mph 40.3 mph N/A   Clear
1:35 PM 53.6 °F - 17.8 °F 24% 30.14 in 10.0 mi West 28.8 mph 41.4 mph N/A   Clear
1:55 PM 54.7 °F - 17.4 °F 23% 30.13 in 10.0 mi West 25.3 mph 40.3 mph N/A   Clear
2:15 PM 56.7 °F - 15.6 °F 20% 30.13 in 10.0 mi West 24.2 mph 44.9 mph N/A   Clear
2:35 PM 55.6 °F - 11.8 °F 18% 30.13 in 10.0 mi West 33.4 mph 43.7 mph N/A   Clear
2:55 PM 53.6 °F - 11.5 °F 19% 30.14 in 10.0 mi WNW 18.4 mph 39.1 mph N/A   Clear
3:15 PM 53.6 °F - 9.7 °F 17% 30.16 in 10.0 mi West 19.6 mph 28.8 mph N/A   Clear
3:35 PM 53.2 °F - 10.6 °F 18% 30.16 in 10.0 mi WNW 17.3 mph 27.6 mph N/A   Clear
3:55 PM 55.6 °F - 12.2 °F 18% 30.17 in 10.0 mi WNW 18.4 mph 35.7 mph N/A   Clear
4:15 PM 55.2 °F - 12.4 °F 18% 30.18 in 10.0 mi West 17.3 mph 26.5 mph N/A   Clear
4:35 PM 53.8 °F - 12.6 °F 19% 30.19 in 10.0 mi West 16.1 mph 21.9 mph N/A   Clear
4:55 PM 52.7 °F - 13.6 °F 21% 30.19 in 10.0 mi WNW 11.5 mph 18.4 mph N/A   Clear
5:15 PM 51.4 °F - 13.3 °F 22% 30.19 in 10.0 mi NW 3.5 mph - N/A   Clear
5:35 PM 49.5 °F - 12.9 °F 23% 30.20 in 10.0 mi Calm Calm - N/A   Clear
5:55 PM 45.7 °F 42.0 °F 14.2 °F 28% 30.19 in 10.0 mi South 6.9 mph - N/A   Clear
6:15 PM 46.8 °F - 13.5 °F 26% 30.20 in 10.0 mi West 4.6 mph - N/A   Clear
6:35 PM 46.8 °F - 13.3 °F 26% 30.21 in 10.0 mi West 4.6 mph - N/A   Clear
6:55 PM 42.8 °F 39.3 °F 14.7 °F 32% 30.22 in 10.0 mi West 5.8 mph - N/A   Clear
7:15 PM 35.2 °F - 18.3 °F 50% 30.22 in 10.0 mi Calm Calm - N/A   Clear
7:35 PM 33.8 °F - 19.0 °F 55% 30.22 in 10.0 mi Calm Calm - N/A   Clear
7:55 PM 31.5 °F - 19.2 °F 61% 30.22 in 10.0 mi Calm Calm - N/A   Clear
8:15 PM 31.5 °F 28.1 °F 19.2 °F 61% 30.22 in 10.0 mi SW 3.5 mph - N/A   Clear
8:35 PM 31.8 °F 27.3 °F 19.2 °F 60% 30.22 in 10.0 mi SW 4.6 mph - N/A   Clear
8:55 PM 29.5 °F 22.5 °F 19.2 °F 66% 30.22 in 10.0 mi SSE 6.9 mph - N/A   Clear
9:15 PM 28.0 °F - 19.4 °F 70% 30.23 in 10.0 mi Calm Calm - N/A   Clear
9:35 PM 30.0 °F - 18.9 °F 63% 30.23 in 10.0 mi Calm Calm - N/A   Clear
9:55 PM 32.0 °F - 17.4 °F 55% 30.23 in 10.0 mi Calm Calm - N/A   Clear
10:15 PM 29.5 °F - 18.3 °F 63% 30.23 in 10.0 mi Calm Calm - N/A   Clear
10:35 PM 28.9 °F - 18.5 °F 65% 30.23 in 10.0 mi Calm Calm - N/A   Clear
10:55 PM 25.0 °F - 18.9 °F 78% 30.23 in 10.0 mi Calm Calm - N/A   Clear
11:15 PM 25.3 °F - 18.5 °F 75% 30.23 in 10.0 mi Calm Calm - N/A   Clear
11:35 PM 25.5 °F - 18.7 °F 75% 30.22 in 10.0 mi Calm Calm - N/A   Clear
11:55 PM 24.3 °F - 18.7 °F 79% 30.21 in 10.0 mi Calm Calm - N/A   Clear